EW7149 Weather Reports


Display with metric or nautical units.
time (UTC)temp
F
wind
direction
speed
MPH
gust
MPH
rain 1hr
in
rain 24hr
in
rain mn
in
humidity
%
barometer
mb
20260902041753 79 269 0.0 0.0 0.00 0.00 0.00 1 1016.2
20260902041243 79 269 0.0 0.0 0.00 0.00 0.00 1 1016.0
20260902040733 79 269 0.0 0.0 0.00 0.00 0.00 1 1015.9
20260902040228 80 269 0.0 0.0 0.00 0.00 0.00 1 1015.9
20260902035723 80 269 0.0 0.0 0.00 0.00 0.00 1 1015.9
20260902035214 80 269 0.0 0.0 0.00 0.00 0.00 1 1015.8
20260902034703 80 269 0.0 0.0 0.00 0.00 0.00 1 1015.7
20260902034146 81 269 0.0 0.0 0.00 0.00 0.00 1 1015.5
20260902033644 81 269 0.0 0.0 0.00 0.00 0.00 1 1015.3
20260902033133 81 269 0.0 0.0 0.00 0.00 0.00 1 1015.3
20260902032624 81 269 0.0 0.0 0.00 0.00 0.00 1 1015.2
20260902032115 81 269 0.0 0.0 0.00 0.00 0.00 1 1014.9
20260902031611 82 269 0.0 0.0 0.00 0.00 0.00 1 1014.8
20260902031115 82 269 0.0 0.0 0.00 0.00 0.00 1 1014.7
20260902030618 82 290 0.0 1.0 0.00 0.00 0.00 4 1014.6
20260902030108 82 273 0.0 0.0 0.00 0.00 0.00 9 1014.6
20260902025609 82 273 0.0 0.0 0.00 0.00 0.00 10 1014.5
20260902025115 82 300 0.0 0.0 0.00 0.00 0.00 11 1014.5
20260902024608 83 259 0.0 0.0 0.00 0.00 0.00 11 1014.4
20260902024050 83 247 0.0 0.0 0.00 0.00 0.00 11 1014.3
20260902023544 83 294 0.0 2.0 0.00 0.00 0.00 13 1014.4
20260902022536 83 240 0.0 0.0 0.00 0.00 0.00 13 1014.2
20260902022034 83 294 0.0 2.0 0.00 0.00 0.00 13 1014.3
20260902021524 83 238 0.0 0.0 0.00 0.00 0.00 11 1014.3
20260902020526 83 269 0.0 0.0 0.00 0.00 0.00 8 1014.4
20260902020014 83 219 0.0 0.0 0.00 0.00 0.00 6 1014.4
20260902015519 83 216 0.0 3.0 0.00 0.00 0.00 5 1014.4
20260902015003 83 292 0.0 0.0 0.00 0.00 0.00 3 1014.3
20260902014511 84 187 0.0 0.0 0.00 0.00 0.00 2 1014.3
20260902012941 84 240 0.0 0.0 0.00 0.00 0.00 5 1014.3
20260902012438 84 277 0.0 0.0 0.00 0.00 0.00 6 1014.3
20260902011926 84 238 0.0 0.0 0.00 0.00 0.00 7 1014.3
20260902010922 84 242 0.0 2.0 0.00 0.00 0.00 6 1014.2
20260902005915 84 253 0.0 0.0 0.00 0.00 0.00 5 1014.1
20260902004906 85 279 0.0 1.0 0.00 0.00 0.00 5 1013.9
20260902004350 85 296 0.0 0.0 0.00 0.00 0.00 6 1013.7
20260902003851 85 248 0.0 0.0 0.00 0.00 0.00 5 1013.6
20260902002843 85 273 0.0 0.0 0.00 0.00 0.00 7 1013.1
20260902002338 85 313 0.0 1.0 0.00 0.00 0.00 8 1013.1
20260902001831 86 267 0.0 0.0 0.00 0.00 0.00 8 1013.0
20260902001313 86 244 0.0 2.0 0.00 0.00 0.00 10 1012.9
20260902000803 86 175 0.0 0.0 0.00 0.00 0.00 11 1012.7
20260902000313 87 180 0.0 0.0 0.00 0.00 0.00 14 1012.7
20260901235758 87 178 0.0 0.0 0.00 0.00 0.00 18 1012.6
20260901235245 88 178 0.0 0.0 0.00 0.00 0.00 20 1012.5
20260901233746 89 177 0.0 0.0 0.00 0.00 0.00 29 1012.5
20260901233236 89 178 0.0 0.0 0.00 0.00 0.00 32 1012.5
20260901232724 90 177 0.0 0.0 0.00 0.00 0.00 35 1012.5
20260901232227 90 177 0.0 0.0 0.00 0.00 0.00 35 1012.5
20260901231723 90 178 0.0 0.0 0.00 0.00 0.00 36 1012.5
20260901231220 90 176 0.0 0.0 0.00 0.00 0.00 36 1012.5
20260901230704 91 176 0.0 0.0 0.00 0.00 0.00 37 1012.5
20260901230212 91 176 0.0 0.0 0.00 0.00 0.00 38 1012.5
20260901225706 91 175 0.0 0.0 0.00 0.00 0.00 40 1012.7
20260901224150 91 171 0.0 0.0 0.00 0.00 0.00 43 1012.7
20260901223631 91 171 0.0 0.0 0.00 0.00 0.00 44 1012.7
20260901223118 92 169 0.0 0.0 0.00 0.00 0.00 46 1012.7
20260901222616 92 180 0.0 0.0 0.00 0.00 0.00 47 1012.7
20260901222118 92 180 0.0 0.0 0.00 0.00 0.00 47 1012.6
20260901221619 92 180 0.0 0.0 0.00 0.00 0.00 48 1012.6
20260901221115 92 141 0.0 0.0 0.00 0.00 0.00 48 1012.8
20260901220120 93 123 0.0 0.0 0.00 0.00 0.00 50 1012.9
20260901215053 93 153 0.0 0.0 0.00 0.00 0.00 51 1012.9
20260901213531 94 159 0.0 0.0 0.00 0.00 0.00 51 1012.9
20260901213021 94 156 0.0 0.0 0.00 0.00 0.00 51 1013.0
20260901212508 94 143 0.0 0.0 0.00 0.00 0.00 50 1013.0
20260901211951 94 246 0.0 0.0 0.00 0.00 0.00 50 1013.1
20260901211438 94 161 0.0 3.0 0.00 0.00 0.00 50 1013.1
20260901210941 93 149 0.0 0.0 0.00 0.00 0.00 51 1013.1
20260901205915 93 146 0.0 3.0 0.00 0.00 0.00 51 1013.1
20260901205404 94 9 0.0 1.0 0.00 0.00 0.00 51 1013.3
20260901204859 94 254 0.0 0.0 0.00 0.00 0.00 51 1013.3
20260901204354 94 226 0.0 0.0 0.00 0.00 0.00 51 1013.3
20260901203843 93 242 0.0 1.0 0.00 0.00 0.00 51 1013.3
20260901202351 93 265 0.0 0.0 0.00 0.00 0.00 51 1013.4
20260901201847 93 153 0.0 4.0 0.00 0.00 0.00 50 1013.4
20260901201337 93 155 0.0 1.0 0.00 0.00 0.00 51 1013.5
20260901200818 93 284 0.0 0.0 0.00 0.00 0.00 50 1013.5
20260901200324 93 159 0.0 6.0 0.00 0.00 0.00 50 1013.5
20260901195830 93 298 0.0 6.0 0.00 0.00 0.00 49 1013.6
20260901194823 93 155 0.0 3.0 0.00 0.00 0.00 46 1013.7
20260901194305 93 133 0.0 0.0 0.00 0.00 0.00 46 1013.7
20260901193804 92 302 0.0 0.0 0.00 0.00 0.00 46 1013.7
20260901193312 92 294 0.0 5.0 0.00 0.00 0.00 47 1013.9
20260901192256 92 132 0.0 6.0 0.00 0.00 0.00 47 1014.1
20260901191746 92 5 0.0 3.0 0.00 0.00 0.00 47 1014.1
20260901191230 92 148 0.0 0.0 0.00 0.00 0.00 47 1014.1
20260901190739 92 233 0.0 6.0 0.00 0.00 0.00 47 1014.2
20260901190232 92 217 0.0 5.0 0.00 0.00 0.00 45 1014.3
20260901185716 92 281 0.0 2.0 0.00 0.00 0.00 43 1014.4
20260901185223 92 309 0.0 0.0 0.00 0.00 0.00 42 1014.5
20260901184731 92 254 0.0 0.0 0.00 0.00 0.00 37 1014.5
20260901184212 91 276 0.0 1.0 0.00 0.00 0.00 41 1014.6
20260901183707 91 297 0.0 1.0 0.00 0.00 0.00 41 1014.7
20260901183214 91 191 0.0 2.0 0.00 0.00 0.00 42 1014.7
20260901182715 91 130 0.0 1.0 0.00 0.00 0.00 42 1014.8
20260901181721 91 273 0.0 0.0 0.00 0.00 0.00 44 1014.7
20260901181214 91 30 0.0 0.0 0.00 0.00 0.00 40 1014.7
20260901180720 90 241 0.0 4.0 0.00 0.00 0.00 41 1014.6
20260901175715 90 241 0.0 0.0 0.00 0.00 0.00 35 1014.8
20260901175217 89 205 0.0 7.0 0.00 0.00 0.00 34 1014.7
20260901174719 89 283 0.0 6.0 0.00 0.00 0.00 35 1014.7
20260901174216 89 190 0.0 6.0 0.00 0.00 0.00 36 1014.7
20260901173723 89 261 0.0 0.0 0.00 0.00 0.00 29 1014.7
20260901173232 89 209 0.0 0.0 0.00 0.00 0.00 33 1014.8
20260901172732 89 265 0.0 2.0 0.00 0.00 0.00 28 1014.9
20260901172232 88 271 0.0 6.0 0.00 0.00 0.00 30 1015.0
20260901171733 88 235 0.0 0.0 0.00 0.00 0.00 18 1015.0
20260901171226 87 274 0.0 5.0 0.00 0.00 0.00 1 1015.2
20260901170714 87 229 0.0 0.0 0.00 0.00 0.00 1 1015.2
20260901170156 86 240 0.0 0.0 0.00 0.00 0.00 5 1015.2
20260901165706 86 327 0.0 0.0 0.00 0.00 0.00 8 1015.2
20260901165209 86 275 0.0 3.0 0.00 0.00 0.00 1 1015.1
20260901163631 86 180 0.0 0.0 0.00 0.00 0.00 1 1015.3
20260901162622 85 282 0.0 8.0 0.00 0.00 0.00 1 1015.7
20260901162124 85 232 0.0 0.0 0.00 0.00 0.00 1 1015.8
20260901160602 84 248 0.0 0.0 0.00 0.00 0.00 1 1015.9
20260901160049 85 291 0.0 0.0 0.00 0.00 0.00 1 1015.9
20260901155538 85 272 0.0 0.0 0.00 0.00 0.00 2 1015.9
20260901155025 85 262 0.0 2.0 0.00 0.00 0.00 3 1015.9
20260901154029 85 249 0.0 0.0 0.00 0.00 0.00 4 1015.9
20260901153523 85 112 0.0 3.0 0.00 0.00 0.00 4 1016.0
20260901152506 85 281 0.0 0.0 0.00 0.00 0.00 1 1016.0
20260901151952 85 256 0.0 3.0 0.00 0.00 0.00 1 1016.0
20260901151434 85 329 0.0 1.0 0.00 0.00 0.00 2 1016.0
20260901150924 85 267 0.0 1.0 0.00 0.00 0.00 3 1016.1
20260901150407 85 297 0.0 0.0 0.00 0.00 0.00 5 1016.1
20260901145904 85 229 0.0 3.0 0.00 0.00 0.00 1 1016.2
20260901145405 85 310 0.0 1.0 0.00 0.00 0.00 1 1016.1
20260901144903 85 257 0.0 1.0 0.00 0.00 0.00 1 1016.1
20260901143905 85 294 0.0 6.0 0.00 0.00 0.00 1 1016.1
20260901143347 85 292 0.0 2.0 0.00 0.00 0.00 1 1016.0
20260901142837 85 291 0.0 6.0 0.00 0.00 0.00 1 1016.0
20260901142328 84 259 0.0 7.0 0.00 0.00 0.00 1 1016.0
20260901141821 83 247 0.0 7.0 0.00 0.00 0.00 1 1016.0
20260901141328 82 256 0.0 7.0 0.00 0.00 0.00 1 1016.1
20260901140317 81 126 0.0 3.0 0.00 0.00 0.00 1 1016.1
20260901135801 80 232 0.0 3.0 0.00 0.00 0.00 1 1016.1
20260901135246 80 225 0.0 5.0 0.00 0.00 0.00 1 1016.2
20260901134747 79 273 0.0 5.0 0.00 0.00 0.00 1 1016.1
20260901134253 79 167 0.0 5.0 0.00 0.00 0.00 1 1016.2
20260901133234 79 227 0.0 1.0 0.00 0.00 0.00 1 1016.2
20260901132738 79 213 0.0 0.0 0.00 0.00 0.00 1 1016.2
20260901131203 79 235 0.0 0.0 0.00 0.00 0.00 1 1016.1
20260901130704 78 234 0.0 0.0 0.00 0.00 0.00 1 1016.1
20260901130211 78 182 0.0 0.0 0.00 0.00 0.00 1 1016.2
20260901125703 78 265 0.0 4.0 0.00 0.00 0.00 1 1016.3
20260901125153 77 274 0.0 0.0 0.00 0.00 0.00 1 1016.4
20260901124637 77 277 0.0 6.0 0.00 0.00 0.00 1 1016.4
20260901124144 77 273 0.0 4.0 0.00 0.00 0.00 1 1016.5
20260901123652 77 291 0.0 3.0 0.00 0.00 0.00 1 1016.6
20260901123138 77 256 0.0 2.0 0.00 0.00 0.00 1 1016.6
20260901122632 77 262 0.0 1.0 0.00 0.00 0.00 1 1016.6
20260901122128 77 261 0.0 0.0 0.00 0.00 0.00 1 1016.7
20260901121631 77 313 0.0 0.0 0.00 0.00 0.00 1 1016.6
20260901121140 77 280 0.0 5.0 0.00 0.00 0.00 1 1016.6
20260901120139 77 205 0.0 1.0 0.00 0.00 0.00 1 1016.5
20260901115640 76 286 0.0 0.0 0.00 0.00 0.00 1 1016.4
20260901115126 76 248 0.0 0.0 0.00 0.00 0.00 1 1016.3
20260901114631 76 239 0.0 2.0 0.00 0.00 0.00 1 1016.2
20260901114117 76 286 0.0 1.0 0.00 0.00 0.00 1 1016.1
20260901113613 76 288 0.0 1.0 0.00 0.00 0.00 1 1016.2
20260901112549 76 192 0.0 1.0 0.00 0.00 0.00 1 1016.2
20260901111555 76 246 0.0 0.0 0.00 0.00 0.00 1 1016.1
20260901111101 76 246 0.0 0.0 0.00 0.00 0.00 1 1016.1
20260901110558 76 246 0.0 0.0 0.00 0.00 0.00 1 1016.0
20260901110038 76 246 0.0 2.0 0.00 0.00 0.00 1 1016.0
20260901105540 76 194 0.0 0.0 0.00 0.00 0.00 1 1016.1
20260901104541 76 252 0.0 0.0 0.00 0.00 0.00 1 1016.2
20260901104048 76 252 0.0 0.0 0.00 0.00 0.00 1 1016.2
20260901103537 76 252 0.0 0.0 0.00 0.00 0.00 1 1016.1
20260901103044 76 254 0.0 0.0 0.00 0.00 0.00 1 1016.0
20260901102552 76 254 0.0 0.0 0.00 0.00 0.00 1 1015.9
20260901102053 76 254 0.0 0.0 0.00 0.00 0.00 1 1015.8
20260901101535 76 254 0.0 0.0 0.00 0.00 0.00 1 1015.8
20260901100018 76 277 0.0 0.0 0.00 0.00 0.00 1 1015.9
20260901094511 76 285 0.0 0.0 0.00 0.00 0.00 1 1016.0
20260901093956 76 286 0.0 2.0 0.00 0.00 0.00 1 1016.0
20260901093440 76 263 0.0 0.0 0.00 0.00 0.00 1 1016.0
20260901092947 76 236 0.0 0.0 0.00 0.00 0.00 1 1016.0
20260901092453 76 236 0.0 2.0 0.00 0.00 0.00 1 1016.0
20260901091951 76 294 0.0 0.0 0.00 0.00 0.00 1 1016.0
20260901091444 76 286 0.0 0.0 0.00 0.00 0.00 1 1016.0
20260901090948 75 240 0.0 0.0 0.00 0.00 0.00 1 1015.9
20260901085946 75 192 0.0 0.0 0.00 0.00 0.00 1 1016.0
20260901084952 75 251 0.0 1.0 0.00 0.00 0.00 1 1016.2
20260901084449 75 238 0.0 0.0 0.00 0.00 0.00 1 1016.2
20260901083933 75 238 0.0 0.0 0.00 0.00 0.00 1 1016.2
20260901083442 75 238 0.0 0.0 0.00 0.00 0.00 1 1016.2
20260901082941 75 251 0.0 0.0 0.00 0.00 0.00 1 1016.2
20260901082430 75 157 0.0 1.0 0.00 0.00 0.00 1 1016.2
20260901081916 75 157 0.0 0.0 0.00 0.00 0.00 1 1016.2
20260901080853 75 157 0.0 0.0 0.00 0.00 0.00 1 1016.1
20260901075900 75 157 0.0 0.0 0.00 0.00 0.00 1 1016.0
20260901075410 75 157 0.0 1.0 0.00 0.00 0.00 1 1016.0
20260901074906 75 158 0.0 0.0 0.00 0.00 0.00 1 1016.0
20260901074353 75 158 0.0 0.0 0.00 0.00 0.00 1 1016.0
20260901073847 75 158 0.0 0.0 0.00 0.00 0.00 1 1016.1
20260901073332 75 158 0.0 0.0 0.00 0.00 0.00 1 1016.1
20260901072833 75 158 0.0 0.0 0.00 0.00 0.00 1 1016.1
20260901072320 75 158 0.0 0.0 0.00 0.00 0.00 1 1016.1
20260901071326 75 158 0.0 0.0 0.00 0.00 0.00 1 1016.0
20260901070828 75 158 0.0 0.0 0.00 0.00 0.00 1 1016.2
20260901070322 75 158 0.0 0.0 0.00 0.00 0.00 1 1016.3
20260901064812 75 157 0.0 0.0 0.00 0.00 0.00 1 1016.5
20260901064311 75 157 0.0 0.0 0.00 0.00 0.00 1 1016.6
20260901063802 75 164 0.0 0.0 0.00 0.00 0.00 1 1016.7
20260901063253 75 164 0.0 0.0 0.00 0.00 0.00 1 1016.8
20260901062743 75 164 0.0 0.0 0.00 0.00 0.00 1 1016.8
20260901062232 75 164 0.0 0.0 0.00 0.00 0.00 1 1016.9
20260901061735 75 164 0.0 0.0 0.00 0.00 0.00 1 1016.9
20260901061226 75 164 0.0 0.0 0.00 0.00 0.00 1 1017.0
20260901060736 75 164 0.0 0.0 0.00 0.00 0.00 1 1017.0
20260901060234 75 164 0.0 0.0 0.00 0.00 0.00 1 1017.0
20260901055743 75 164 0.0 0.0 0.00 0.00 0.00 1 1017.0
20260901055245 75 164 0.0 0.0 0.00 0.00 0.00 1 1016.9
20260901054727 75 164 0.0 0.0 0.00 0.00 0.00 1 1016.9
20260901054223 75 164 0.0 0.0 0.00 0.00 0.00 1 1016.9
20260901053713 75 164 0.0 0.0 0.00 0.00 0.00 1 1016.9
20260901053205 75 164 0.0 1.0 0.00 0.00 0.00 1 1017.0
20260901052705 75 163 0.0 0.0 0.00 0.00 0.00 1 1017.0
20260901052215 75 163 0.0 1.0 0.00 0.00 0.00 1 1017.0
20260901051710 75 167 0.0 0.0 0.00 0.00 0.00 1 1017.1
20260901051217 75 167 0.0 0.0 0.00 0.00 0.00 1 1017.2
20260901050711 75 167 0.0 0.0 0.00 0.00 0.00 1 1017.3
20260901050154 75 167 0.0 0.0 0.00 0.00 0.00 1 1017.3
20260901045147 75 167 0.0 0.0 0.00 0.00 0.00 1 1017.4
20260901044651 75 167 0.0 0.0 0.00 0.00 0.00 1 1017.4
20260901044153 75 167 0.0 0.0 0.00 0.00 0.00 1 1017.4
20260901042645 75 167 0.0 0.0 0.00 0.00 0.00 1 1017.5